Oberpfaffenhofen, Germany

4:18 PM CEST on April 25, 2018 (GMT +0200)
Oberpfaffenhofen

Weather History for EDMO - July, 2013

Change the Weather History Date:

Tuesday, July 30, 2013

  Actual Average Record
Temperature  
Mean Temperature 66 °F -  
Max Temperature 73 °F 67 °F 86 °F (2017)
Min Temperature 59 °F 61 °F 48 °F (2015)
Cooling Degree Days 1    
Growing Degree Days 16 (Base 50)    
Moisture  
Dew Point 52 °F    
Average Humidity 57    
Maximum Humidity 82    
Minimum Humidity 41    
Precipitation  
Precipitation 0.00 in - - ()
Sea Level Pressure  
Sea Level Pressure 30.19 in    
Wind  
Wind Speed 11 mph ()    
Max Wind Speed 17 mph    
Max Gust Speed -    
Visibility 6.2 miles    
Events      
Averages and records for this station are not official NWS values.
T = Trace of Precipitation, MM = Missing Value Source: Averaged Metar Reports

Daily Weather History Graph

Daily Weather History Graph

Search for Another Location

Airport or City:

Astronomy

Jul. 30, 2013 Rise Set
Actual Time 5:48 AM CEST 8:53 PM CEST
Civil Twilight 5:11 AM CEST 9:30 PM CEST
Nautical Twilight 4:23 AM CEST 10:17 PM CEST
Astronomical Twilight 3:23 AM CEST 11:16 PM CEST
Moon 12:01 AM CEST (7/30) 2:54 PM CEST (7/30)
Length of Visible Light 16h 18m
Length of Day
15h 05m
Last Quarter, 43% of the Moon is Illuminated
Jul 30
Last Quarter
Aug 6
New
Aug 14
First Quarter
Aug 21
Full
Aug 28
Last Quarter

Hourly Weather History & Observations

Time (CEST) Temp. Dew Point Humidity Pressure Visibility Wind Dir Wind Speed Gust Speed Precip Events Conditions
6:50 AM 59.0 °F 51.8 °F 77% 30.18 in 6.2 mi SW 11.5 mph - N/A   Scattered Clouds
7:20 AM 59.0 °F 51.8 °F 77% 30.21 in 6.2 mi SW 11.5 mph - N/A   Mostly Cloudy
7:50 AM 60.8 °F 53.6 °F 77% 30.21 in 6.2 mi SW 11.5 mph - N/A   Mostly Cloudy
8:20 AM 60.8 °F 53.6 °F 77% 30.21 in 6.2 mi SW 10.4 mph - N/A   Mostly Cloudy
8:50 AM 60.8 °F 53.6 °F 77% 30.21 in 6.2 mi WSW 11.5 mph - N/A   Mostly Cloudy
9:20 AM 60.8 °F 55.4 °F 82% 30.21 in 6.2 mi WSW 8.1 mph - N/A   Mostly Cloudy
9:50 AM 64.4 °F 55.4 °F 73% 30.21 in 6.2 mi WSW 12.7 mph - N/A   Scattered Clouds
10:20 AM 64.4 °F 53.6 °F 68% 30.21 in 6.2 mi West 15.0 mph - N/A   Scattered Clouds
10:50 AM 66.2 °F 55.4 °F 68% 30.21 in 6.2 mi WSW 12.7 mph - N/A   Mostly Cloudy
11:20 AM 68.0 °F 55.4 °F 64% 30.21 in 6.2 mi West 10.4 mph - N/A   Mostly Cloudy
11:50 AM 68.0 °F 53.6 °F 60% 30.21 in 6.2 mi West 10.4 mph - N/A   Scattered Clouds
12:20 PM 68.0 °F 51.8 °F 56% 30.21 in 6.2 mi WSW 17.3 mph - N/A   Scattered Clouds
12:50 PM 71.6 °F 55.4 °F 57% 30.21 in 6.2 mi WSW 12.7 mph - N/A   Scattered Clouds
1:20 PM 69.8 °F 51.8 °F 53% 30.21 in 6.2 mi West 15.0 mph - N/A   Scattered Clouds
1:50 PM 71.6 °F 51.8 °F 50% 30.18 in 6.2 mi WSW 12.7 mph - N/A   Scattered Clouds
2:20 PM 73.4 °F 50.0 °F 44% 30.18 in 6.2 mi WSW 15.0 mph - N/A   Scattered Clouds
2:50 PM 73.4 °F 50.0 °F 44% 30.18 in 6.2 mi West 13.8 mph - N/A   Scattered Clouds
3:20 PM 73.4 °F 50.0 °F 44% 30.18 in 6.2 mi WSW 15.0 mph - N/A   Partly Cloudy
3:50 PM 73.4 °F 50.0 °F 44% 30.18 in 6.2 mi WSW 13.8 mph - N/A   Scattered Clouds
4:20 PM 73.4 °F 50.0 °F 44% 30.18 in - WSW 17.3 mph - N/A   Clear
4:50 PM 73.4 °F 48.2 °F 41% 30.18 in - WSW 15.0 mph - N/A   Clear
5:20 PM 73.4 °F 48.2 °F 41% 30.15 in - WSW 17.3 mph - N/A   Clear
5:50 PM 73.4 °F 48.2 °F 41% 30.15 in - West 15.0 mph - N/A   Clear
6:20 PM 73.4 °F 48.2 °F 41% 30.15 in - West 12.7 mph - N/A   Clear
6:50 PM 73.4 °F 48.2 °F 41% 30.15 in - West 13.8 mph - N/A   Clear
7:20 PM 71.6 °F 48.2 °F 43% 30.15 in - West 9.2 mph - N/A   Clear
7:50 PM 71.6 °F 48.2 °F 43% 30.15 in - West 11.5 mph - N/A   Clear